{"data":{"norad_id":51804,"intl_designator":"2022-017AN","name":"STARLINK-3601","alt_names":[],"object_type":"PAYLOAD","status":"ACTIVE","operator":null,"country":"US","launch_date":"2022-02-25","launch_site_code":"AFWTR","launch_vehicle":null,"mission":null,"orbit_class":"UNKNOWN","rcs_meters":null,"size_class":null,"mass_kg":null,"dimensions":null,"purposes":["comms"],"wikipedia_slug":null,"has_3d_model":false,"image_url":null,"decayed_at":null,"tle_current":{"epoch":"2026-05-24T23:55:03.094176Z","epoch_age_seconds":78606,"freshness":"FRESH","line1":"1 51804U 22017AN  26144.99656359 -.00000725  00000+0 -27491-4 0  9991","line2":"2 51804  53.2138 346.5647 0001169  92.4399 267.6727 15.08833914235672","mean_motion":15.08833914,"eccentricity":0.0001169,"inclination_deg":53.2138,"raan_deg":346.5647,"arg_perigee_deg":92.4399,"mean_anomaly_deg":267.6727,"bstar":-2.7491e-5,"rev_number":23567,"period_min":95.437939632632,"perigee_km":538.95328910179,"apogee_km":540.570693886,"semimajor_km":6917.8989914939,"source":"CELESTRAK","updated_at":"2026-05-25T13:38:16.956838Z"}}}